owner,sensor,date,latitude,longitude,vertical_datum,mass_concentration_of_oxygen_in_sea_water,qcFlag 
DISL,ioos:station:DISL:MHPA:1,2019-11-01T00:00:00Z,30.6671,-87.9365,1.107,7.51,11111222 
DISL,ioos:station:DISL:MHPA:1,2019-11-01T01:00:00Z,30.6671,-87.9365,1.157,7.67,11111222 
DISL,ioos:station:DISL:MHPA:1,2019-11-01T02:00:00Z,30.6671,-87.9365,1.15,7.68,11111222 
DISL,ioos:station:DISL:MHPA:1,2019-11-01T03:00:00Z,30.6671,-87.9365,1.19,7.59,11111222 
DISL,ioos:station:DISL:MHPA:1,2019-11-01T04:00:00Z,30.6671,-87.9365,1.258,7.54,11111222 
DISL,ioos:station:DISL:MHPA:1,2019-11-01T05:00:00Z,30.6671,-87.9365,1.371,7.49,11111222 
DISL,ioos:station:DISL:MHPA:1,2019-11-01T06:00:00Z,30.6671,-87.9365,1.52,7.91,11111222 
DISL,ioos:station:DISL:MHPA:1,2019-11-01T07:00:00Z,30.6671,-87.9365,1.55,7.8,11111222 
DISL,ioos:station:DISL:MHPA:1,2019-11-01T08:00:00Z,30.6671,-87.9365,1.537,7.65,11111222 
DISL,ioos:station:DISL:MHPA:1,2019-11-01T09:00:00Z,30.6671,-87.9365,0.359,7.87,11111222 
DISL,ioos:station:DISL:MHPA:1,2019-11-01T10:00:00Z,30.6671,-87.9365,0.951,7.54,11111222 
DISL,ioos:station:DISL:MHPA:1,2019-11-01T11:00:00Z,30.6671,-87.9365,0.97,7.77,11111222 
DISL,ioos:station:DISL:MHPA:1,2019-11-01T12:00:00Z,30.6671,-87.9365,1.002,7.29,11111222 
DISL,ioos:station:DISL:MHPA:1,2019-11-01T13:00:00Z,30.6671,-87.9365,0.956,7.53,11111222 
DISL,ioos:station:DISL:MHPA:1,2019-11-01T14:00:00Z,30.6671,-87.9365,0.647,7.61,11111222 
DISL,ioos:station:DISL:MHPA:1,2019-11-01T15:00:00Z,30.6671,-87.9365,0.472,7.93,11111222 
DISL,ioos:station:DISL:MHPA:1,2019-11-01T16:00:00Z,30.6671,-87.9365,0.431,7.82,11111222 
DISL,ioos:station:DISL:MHPA:1,2019-11-01T17:00:00Z,30.6671,-87.9365,0.38,7.89,11111222 
DISL,ioos:station:DISL:MHPA:1,2019-11-01T18:00:00Z,30.6671,-87.9365,0.349,8.13,11111222 
DISL,ioos:station:DISL:MHPA:1,2019-11-01T19:00:00Z,30.6671,-87.9365,0.336,8.03,11111222 
DISL,ioos:station:DISL:MHPA:1,2019-11-01T20:00:00Z,30.6671,-87.9365,0.312,8.19,11111222 
DISL,ioos:station:DISL:MHPA:1,2019-11-01T21:00:00Z,30.6671,-87.9365,0.329,8.37,11111222 
DISL,ioos:station:DISL:MHPA:1,2019-11-01T22:00:00Z,30.6671,-87.9365,0.416,8.37,11111222 
DISL,ioos:station:DISL:MHPA:1,2019-11-01T23:00:00Z,30.6671,-87.9365,0.63,8.36,11111222 
DISL,ioos:station:DISL:MHPA:1,2019-11-02T00:00:00Z,30.6671,-87.9365,0.764,8.45,11111222 
DISL,ioos:station:DISL:MHPA:1,2019-11-02T01:00:00Z,30.6671,-87.9365,0.883,8.89,11111222 
DISL,ioos:station:DISL:MHPA:1,2019-11-02T02:00:00Z,30.6671,-87.9365,0.975,9.0,11111222 
DISL,ioos:station:DISL:MHPA:1,2019-11-02T03:00:00Z,30.6671,-87.9365,1.07,9.07,11111222 
DISL,ioos:station:DISL:MHPA:1,2019-11-02T04:00:00Z,30.6671,-87.9365,1.104,8.74,11111222 
DISL,ioos:station:DISL:MHPA:1,2019-11-02T05:00:00Z,30.6671,-87.9365,1.147,8.85,11111222 
DISL,ioos:station:DISL:MHPA:1,2019-11-02T06:00:00Z,30.6671,-87.9365,1.213,8.75,11111222 
DISL,ioos:station:DISL:MHPA:1,2019-11-02T07:00:00Z,30.6671,-87.9365,1.255,8.7,11111222 
DISL,ioos:station:DISL:MHPA:1,2019-11-02T08:00:00Z,30.6671,-87.9365,1.237,8.82,11111222 
DISL,ioos:station:DISL:MHPA:1,2019-11-02T09:00:00Z,30.6671,-87.9365,1.178,8.85,11111222 
DISL,ioos:station:DISL:MHPA:1,2019-11-02T10:00:00Z,30.6671,-87.9365,0.806,8.56,11111222 
DISL,ioos:station:DISL:MHPA:1,2019-11-02T11:00:00Z,30.6671,-87.9365,0.758,8.53,11111222 
DISL,ioos:station:DISL:MHPA:1,2019-11-02T12:00:00Z,30.6671,-87.9365,0.679,8.53,11111222 
DISL,ioos:station:DISL:MHPA:1,2019-11-02T13:00:00Z,30.6671,-87.9365,0.58,8.41,11111222 
DISL,ioos:station:DISL:MHPA:1,2019-11-02T14:00:00Z,30.6671,-87.9365,0.343,8.58,11111222 
DISL,ioos:station:DISL:MHPA:1,2019-11-02T15:00:00Z,30.6671,-87.9365,0.067,8.46,11111222 
DISL,ioos:station:DISL:MHPA:1,2019-11-02T16:00:00Z,30.6671,-87.9365,-0.074,8.49,11111222 
DISL,ioos:station:DISL:MHPA:1,2019-11-02T17:00:00Z,30.6671,-87.9365,-0.006,7.82,11111222 
DISL,ioos:station:DISL:MHPA:1,2019-11-02T18:00:00Z,30.6671,-87.9365,0.079,7.88,11111222 
DISL,ioos:station:DISL:MHPA:1,2019-11-02T19:00:00Z,30.6671,-87.9365,0.03,7.88,11111222 
DISL,ioos:station:DISL:MHPA:1,2019-11-02T20:00:00Z,30.6671,-87.9365,-0.038,8.15,11111222 
DISL,ioos:station:DISL:MHPA:1,2019-11-02T21:00:00Z,30.6671,-87.9365,-0.098,8.48,11111222 
DISL,ioos:station:DISL:MHPA:1,2019-11-02T22:00:00Z,30.6671,-87.9365,-0.037,8.36,11111222 
DISL,ioos:station:DISL:MHPA:1,2019-11-02T23:00:00Z,30.6671,-87.9365,0.146,8.41,11111222 
DISL,ioos:station:DISL:MHPA:1,2019-11-03T00:00:00Z,30.6671,-87.9365,0.311,8.41,11111222 
DISL,ioos:station:DISL:MHPA:1,2019-11-03T01:00:00Z,30.6671,-87.9365,0.237,8.17,11111222 
DISL,ioos:station:DISL:MHPA:1,2019-11-03T02:00:00Z,30.6671,-87.9365,0.462,8.4,11111222 
DISL,ioos:station:DISL:MHPA:1,2019-11-03T03:00:00Z,30.6671,-87.9365,0.497,8.48,11111222 
DISL,ioos:station:DISL:MHPA:1,2019-11-03T04:00:00Z,30.6671,-87.9365,0.402,8.31,11111222 
DISL,ioos:station:DISL:MHPA:1,2019-11-03T05:00:00Z,30.6671,-87.9365,0.602,8.37,11111222 
DISL,ioos:station:DISL:MHPA:1,2019-11-03T06:00:00Z,30.6671,-87.9365,0.72,8.34,11111222 
DISL,ioos:station:DISL:MHPA:1,2019-11-03T06:30:00Z,30.6671,-87.9365,0.739,8.5,11111222 
DISL,ioos:station:DISL:MHPA:1,2019-11-03T08:00:00Z,30.6671,-87.9365,0.801,8.38,11111222 
DISL,ioos:station:DISL:MHPA:1,2019-11-03T09:00:00Z,30.6671,-87.9365,0.787,8.43,11111222 
DISL,ioos:station:DISL:MHPA:1,2019-11-03T10:00:00Z,30.6671,-87.9365,0.824,8.39,11111222 
DISL,ioos:station:DISL:MHPA:1,2019-11-03T11:00:00Z,30.6671,-87.9365,0.815,8.2,11111222 
DISL,ioos:station:DISL:MHPA:1,2019-11-03T12:00:00Z,30.6671,-87.9365,0.739,8.39,11111222 
DISL,ioos:station:DISL:MHPA:1,2019-11-03T13:00:00Z,30.6671,-87.9365,0.71,8.32,11111222 
DISL,ioos:station:DISL:MHPA:1,2019-11-03T14:00:00Z,30.6671,-87.9365,0.424,7.86,11111222 
DISL,ioos:station:DISL:MHPA:1,2019-11-03T15:00:00Z,30.6671,-87.9365,0.264,7.92,11111222 
DISL,ioos:station:DISL:MHPA:1,2019-11-03T16:00:00Z,30.6671,-87.9365,0.217,8.17,11111222 
DISL,ioos:station:DISL:MHPA:1,2019-11-03T17:00:00Z,30.6671,-87.9365,0.116,7.93,11111222 
DISL,ioos:station:DISL:MHPA:1,2019-11-03T18:00:00Z,30.6671,-87.9365,0.172,7.67,11111222 
DISL,ioos:station:DISL:MHPA:1,2019-11-03T19:00:00Z,30.6671,-87.9365,0.167,7.63,11111222 
DISL,ioos:station:DISL:MHPA:1,2019-11-03T20:00:00Z,30.6671,-87.9365,0.134,7.79,11111222 
DISL,ioos:station:DISL:MHPA:1,2019-11-03T21:00:00Z,30.6671,-87.9365,0.151,7.91,11111222 
DISL,ioos:station:DISL:MHPA:1,2019-11-03T22:00:00Z,30.6671,-87.9365,0.185,7.95,11111222 
DISL,ioos:station:DISL:MHPA:1,2019-11-03T23:00:00Z,30.6671,-87.9365,0.289,8.22,11111222 
DISL,ioos:station:DISL:MHPA:1,2019-11-04T00:00:00Z,30.6671,-87.9365,0.463,8.02,11111222 
DISL,ioos:station:DISL:MHPA:1,2019-11-04T01:00:00Z,30.6671,-87.9365,0.538,8.11,11111222 
DISL,ioos:station:DISL:MHPA:1,2019-11-04T02:00:00Z,30.6671,-87.9365,0.628,7.91,11111222 
DISL,ioos:station:DISL:MHPA:1,2019-11-04T03:00:00Z,30.6671,-87.9365,0.684,7.93,11111222 
DISL,ioos:station:DISL:MHPA:1,2019-11-04T04:00:00Z,30.6671,-87.9365,0.761,7.85,11111222 
DISL,ioos:station:DISL:MHPA:1,2019-11-04T05:00:00Z,30.6671,-87.9365,0.808,7.84,11111222 
DISL,ioos:station:DISL:MHPA:1,2019-11-04T06:00:00Z,30.6671,-87.9365,0.853,7.83,11111222 
DISL,ioos:station:DISL:MHPA:1,2019-11-04T16:30:00Z,30.6671,-87.9365,-0.109,6.53,11111222 
DISL,ioos:station:DISL:MHPA:1,2019-11-04T17:00:00Z,30.6671,-87.9365,-0.083,6.88,11111222 
DISL,ioos:station:DISL:MHPA:1,2019-11-04T18:00:00Z,30.6671,-87.9365,-0.185,7.16,11111222 
DISL,ioos:station:DISL:MHPA:1,2019-11-04T19:00:00Z,30.6671,-87.9365,-0.045,7.13,11111222 
DISL,ioos:station:DISL:MHPA:1,2019-11-04T20:00:00Z,30.6671,-87.9365,-0.024,7.08,11111222 
DISL,ioos:station:DISL:MHPA:1,2019-11-04T21:00:00Z,30.6671,-87.9365,-0.026,7.27,11111222 
DISL,ioos:station:DISL:MHPA:1,2019-11-04T22:00:00Z,30.6671,-87.9365,-0.02,7.04,11111222 
DISL,ioos:station:DISL:MHPA:1,2019-11-04T23:00:00Z,30.6671,-87.9365,0.044,7.36,11111222 
DISL,ioos:station:DISL:MHPA:1,2019-11-05T00:00:00Z,30.6671,-87.9365,0.083,7.2,11111222 
DISL,ioos:station:DISL:MHPA:1,2019-11-05T01:00:00Z,30.6671,-87.9365,0.102,7.26,11111222 
DISL,ioos:station:DISL:MHPA:1,2019-11-05T02:00:00Z,30.6671,-87.9365,0.19,7.14,11111222 
DISL,ioos:station:DISL:MHPA:1,2019-11-05T03:00:00Z,30.6671,-87.9365,0.232,7.56,11111222 
DISL,ioos:station:DISL:MHPA:1,2019-11-05T04:00:00Z,30.6671,-87.9365,0.301,7.1,11111222 
DISL,ioos:station:DISL:MHPA:1,2019-11-05T05:00:00Z,30.6671,-87.9365,0.346,7.26,11111222 
DISL,ioos:station:DISL:MHPA:1,2019-11-05T06:00:00Z,30.6671,-87.9365,0.365,7.11,11111222 
DISL,ioos:station:DISL:MHPA:1,2019-11-05T07:00:00Z,30.6671,-87.9365,0.363,7.09,11111222 
DISL,ioos:station:DISL:MHPA:1,2019-11-05T08:00:00Z,30.6671,-87.9365,0.298,6.92,11111222 
DISL,ioos:station:DISL:MHPA:1,2019-11-05T09:00:00Z,30.6671,-87.9365,0.356,6.99,11111222 
DISL,ioos:station:DISL:MHPA:1,2019-11-05T10:00:00Z,30.6671,-87.9365,0.159,7.28,11111222 
DISL,ioos:station:DISL:MHPA:1,2019-11-05T11:00:00Z,30.6671,-87.9365,0.08,6.99,11111222 
DISL,ioos:station:DISL:MHPA:1,2019-11-05T12:00:00Z,30.6671,-87.9365,0.061,7.15,11111222 
DISL,ioos:station:DISL:MHPA:1,2019-11-05T13:00:00Z,30.6671,-87.9365,0.019,6.71,11111222 
DISL,ioos:station:DISL:MHPA:1,2019-11-05T14:00:00Z,30.6671,-87.9365,-0.245,6.73,11111222 
DISL,ioos:station:DISL:MHPA:1,2019-11-05T15:00:00Z,30.6671,-87.9365,-0.375,7.05,11111222 
DISL,ioos:station:DISL:MHPA:1,2019-11-05T16:00:00Z,30.6671,-87.9365,-0.512,7.16,11111222 
DISL,ioos:station:DISL:MHPA:1,2019-11-05T17:00:00Z,30.6671,-87.9365,-0.493,7.22,11111222 
DISL,ioos:station:DISL:MHPA:1,2019-11-05T18:00:00Z,30.6671,-87.9365,-0.628,7.06,11111222 
DISL,ioos:station:DISL:MHPA:1,2019-11-05T19:00:00Z,30.6671,-87.9365,-1.123,6.72,11111222 
DISL,ioos:station:DISL:MHPA:1,2019-11-05T20:00:00Z,30.6671,-87.9365,-0.98,6.92,11111222 
DISL,ioos:station:DISL:MHPA:1,2019-11-05T21:00:00Z,30.6671,-87.9365,-0.979,7.11,11111222 
DISL,ioos:station:DISL:MHPA:1,2019-11-05T22:00:00Z,30.6671,-87.9365,-0.902,6.76,11111222 
DISL,ioos:station:DISL:MHPA:1,2019-11-05T23:00:00Z,30.6671,-87.9365,-0.972,7.25,11111222 
DISL,ioos:station:DISL:MHPA:1,2019-11-06T00:00:00Z,30.6671,-87.9365,-0.957,7.18,11111222 
DISL,ioos:station:DISL:MHPA:1,2019-11-06T01:00:00Z,30.6671,-87.9365,-0.93,6.96,11111222 
DISL,ioos:station:DISL:MHPA:1,2019-11-06T02:00:00Z,30.6671,-87.9365,-0.91,6.78,11111222 
DISL,ioos:station:DISL:MHPA:1,2019-11-06T03:00:00Z,30.6671,-87.9365,-1.392,6.68,11111222 
DISL,ioos:station:DISL:MHPA:1,2019-11-06T04:00:00Z,30.6671,-87.9365,-1.564,6.67,11111222 
DISL,ioos:station:DISL:MHPA:1,2019-11-06T05:00:00Z,30.6671,-87.9365,-1.537,6.83,11111222 
DISL,ioos:station:DISL:MHPA:1,2019-11-06T06:00:00Z,30.6671,-87.9365,-1.791,7.07,11111222 
DISL,ioos:station:DISL:MHPA:1,2019-11-06T07:00:00Z,30.6671,-87.9365,-2.125,6.98,11111222 
DISL,ioos:station:DISL:MHPA:1,2019-11-06T08:00:00Z,30.6671,-87.9365,-2.121,7.22,11111222 
DISL,ioos:station:DISL:MHPA:1,2019-11-06T09:00:00Z,30.6671,-87.9365,-2.491,6.92,11111222 
DISL,ioos:station:DISL:MHPA:1,2019-11-06T10:00:00Z,30.6671,-87.9365,-2.655,6.99,11111222 
DISL,ioos:station:DISL:MHPA:1,2019-11-06T11:00:00Z,30.6671,-87.9365,-2.883,6.93,11111222 
DISL,ioos:station:DISL:MHPA:1,2019-11-06T12:00:00Z,30.6671,-87.9365,-2.75,6.91,11111222 
DISL,ioos:station:DISL:MHPA:1,2019-11-06T13:00:00Z,30.6671,-87.9365,-2.749,7.17,11111222 
DISL,ioos:station:DISL:MHPA:1,2019-11-06T14:00:00Z,30.6671,-87.9365,-3.083,7.21,11111222 
DISL,ioos:station:DISL:MHPA:1,2019-11-06T15:00:00Z,30.6671,-87.9365,-3.714,7.18,11111222 
DISL,ioos:station:DISL:MHPA:1,2019-11-06T16:00:00Z,30.6671,-87.9365,13.31,7.12,11111222 
DISL,ioos:station:DISL:MHPA:1,2019-11-06T17:00:00Z,30.6671,-87.9365,-3.241,7.04,11111222 
DISL,ioos:station:DISL:MHPA:1,2019-11-06T18:00:00Z,30.6671,-87.9365,-3.704,6.95,11111222 
DISL,ioos:station:DISL:MHPA:1,2019-11-06T19:00:00Z,30.6671,-87.9365,-3.71,7.1,11111222 
DISL,ioos:station:DISL:MHPA:1,2019-11-06T20:00:00Z,30.6671,-87.9365,-3.717,7.1,11111222 
DISL,ioos:station:DISL:MHPA:1,2019-11-06T21:00:00Z,30.6671,-87.9365,-3.681,6.99,11111222 
DISL,ioos:station:DISL:MHPA:1,2019-11-06T22:00:00Z,30.6671,-87.9365,-3.704,6.83,11111222 
DISL,ioos:station:DISL:MHPA:1,2019-11-06T23:00:00Z,30.6671,-87.9365,-3.662,7.12,11111222 
DISL,ioos:station:DISL:MHPA:1,2019-11-07T00:00:00Z,30.6671,-87.9365,-3.727,6.88,11111222 
DISL,ioos:station:DISL:MHPA:1,2019-11-07T01:00:00Z,30.6671,-87.9365,-3.704,6.84,11111222 
DISL,ioos:station:DISL:MHPA:1,2019-11-07T02:00:00Z,30.6671,-87.9365,-3.689,6.91,11111222 
DISL,ioos:station:DISL:MHPA:1,2019-11-07T03:00:00Z,30.6671,-87.9365,-3.699,6.71,11111222 
DISL,ioos:station:DISL:MHPA:1,2019-11-07T04:00:00Z,30.6671,-87.9365,-3.668,6.66,11111222 
DISL,ioos:station:DISL:MHPA:1,2019-11-07T05:00:00Z,30.6671,-87.9365,-3.657,6.96,11111222 
DISL,ioos:station:DISL:MHPA:1,2019-11-07T06:00:00Z,30.6671,-87.9365,-3.704,6.37,11111222 
DISL,ioos:station:DISL:MHPA:1,2019-11-07T07:00:00Z,30.6671,-87.9365,-3.698,6.72,11111222 
DISL,ioos:station:DISL:MHPA:1,2019-11-07T08:00:00Z,30.6671,-87.9365,-3.688,6.52,11111222 
DISL,ioos:station:DISL:MHPA:1,2019-11-07T09:00:00Z,30.6671,-87.9365,-3.647,6.67,11111222 
DISL,ioos:station:DISL:MHPA:1,2019-11-07T10:00:00Z,30.6671,-87.9365,-3.657,6.71,11111222 
DISL,ioos:station:DISL:MHPA:1,2019-11-07T11:00:00Z,30.6671,-87.9365,-3.681,6.7,11111222 
DISL,ioos:station:DISL:MHPA:1,2019-11-07T12:00:00Z,30.6671,-87.9365,-3.665,6.6,11111222 
DISL,ioos:station:DISL:MHPA:1,2019-11-07T13:00:00Z,30.6671,-87.9365,-3.686,6.62,11111222 
DISL,ioos:station:DISL:MHPA:1,2019-11-07T14:00:00Z,30.6671,-87.9365,-3.664,6.77,11111222 
DISL,ioos:station:DISL:MHPA:1,2019-11-07T15:00:00Z,30.6671,-87.9365,-3.69,6.93,11111222 
DISL,ioos:station:DISL:MHPA:1,2019-11-07T16:00:00Z,30.6671,-87.9365,-3.652,6.74,11111222 
DISL,ioos:station:DISL:MHPA:1,2019-11-07T17:00:00Z,30.6671,-87.9365,-3.693,6.69,11111222 
DISL,ioos:station:DISL:MHPA:1,2019-11-07T18:00:00Z,30.6671,-87.9365,-3.688,6.57,11111222 
DISL,ioos:station:DISL:MHPA:1,2019-11-07T19:00:00Z,30.6671,-87.9365,-3.679,6.51,11111222 
DISL,ioos:station:DISL:MHPA:1,2019-11-07T20:00:00Z,30.6671,-87.9365,-3.666,6.74,11111222 
DISL,ioos:station:DISL:MHPA:1,2019-11-07T21:00:00Z,30.6671,-87.9365,-3.629,6.93,11111222 
DISL,ioos:station:DISL:MHPA:1,2019-11-07T22:00:00Z,30.6671,-87.9365,-3.652,7.54,11111222 
DISL,ioos:station:DISL:MHPA:1,2019-11-07T23:00:00Z,30.6671,-87.9365,-3.571,7.13,11111222 
DISL,ioos:station:DISL:MHPA:1,2019-11-08T00:00:00Z,30.6671,-87.9365,-3.663,7.05,11111222 
DISL,ioos:station:DISL:MHPA:1,2019-11-08T01:00:00Z,30.6671,-87.9365,-3.643,6.58,11111222 
DISL,ioos:station:DISL:MHPA:1,2019-11-08T02:00:00Z,30.6671,-87.9365,-3.651,6.86,11111222 
DISL,ioos:station:DISL:MHPA:1,2019-11-08T03:00:00Z,30.6671,-87.9365,-3.607,6.98,11111222 
DISL,ioos:station:DISL:MHPA:1,2019-11-08T04:00:00Z,30.6671,-87.9365,-3.613,7.15,11111222 
DISL,ioos:station:DISL:MHPA:1,2019-11-08T05:00:00Z,30.6671,-87.9365,-3.657,6.83,11111222 
DISL,ioos:station:DISL:MHPA:1,2019-11-08T06:00:00Z,30.6671,-87.9365,-3.602,6.88,11111222 
DISL,ioos:station:DISL:MHPA:1,2019-11-08T07:00:00Z,30.6671,-87.9365,-3.628,6.56,11111222 
DISL,ioos:station:DISL:MHPA:1,2019-11-08T08:00:00Z,30.6671,-87.9365,-3.629,6.6,11111222 
DISL,ioos:station:DISL:MHPA:1,2019-11-08T09:00:00Z,30.6671,-87.9365,-3.689,6.98,11111222 
DISL,ioos:station:DISL:MHPA:1,2019-11-08T10:00:00Z,30.6671,-87.9365,-3.668,6.94,11111222 
DISL,ioos:station:DISL:MHPA:1,2019-11-08T11:00:00Z,30.6671,-87.9365,-3.735,6.95,11111222 
DISL,ioos:station:DISL:MHPA:1,2019-11-08T12:00:00Z,30.6671,-87.9365,-3.697,7.15,11111222 
DISL,ioos:station:DISL:MHPA:1,2019-11-08T13:00:00Z,30.6671,-87.9365,-3.701,6.86,11111222 
DISL,ioos:station:DISL:MHPA:1,2019-11-08T14:00:00Z,30.6671,-87.9365,-3.691,6.98,11111222 
DISL,ioos:station:DISL:MHPA:1,2019-11-08T15:00:00Z,30.6671,-87.9365,-3.623,7.17,11111222 
DISL,ioos:station:DISL:MHPA:1,2019-11-08T16:00:00Z,30.6671,-87.9365,-3.658,7.33,11111222 
DISL,ioos:station:DISL:MHPA:1,2019-11-08T17:00:00Z,30.6671,-87.9365,-3.617,7.42,11111222 
DISL,ioos:station:DISL:MHPA:1,2019-11-08T18:00:00Z,30.6671,-87.9365,-3.608,7.44,11111222 
DISL,ioos:station:DISL:MHPA:1,2019-11-08T19:00:00Z,30.6671,-87.9365,-3.625,7.81,11111222 
DISL,ioos:station:DISL:MHPA:1,2019-11-08T20:00:00Z,30.6671,-87.9365,-3.591,8.13,11111222 
DISL,ioos:station:DISL:MHPA:1,2019-11-08T21:00:00Z,30.6671,-87.9365,-3.677,8.28,11111222 
DISL,ioos:station:DISL:MHPA:1,2019-11-08T22:00:00Z,30.6671,-87.9365,-3.672,8.02,11111222 
DISL,ioos:station:DISL:MHPA:1,2019-11-08T23:00:00Z,30.6671,-87.9365,-3.72,7.89,11111222 
DISL,ioos:station:DISL:MHPA:1,2019-11-09T00:00:00Z,30.6671,-87.9365,-3.674,8.04,11111222 
DISL,ioos:station:DISL:MHPA:1,2019-11-09T01:00:00Z,30.6671,-87.9365,-3.685,7.94,11111222 
DISL,ioos:station:DISL:MHPA:1,2019-11-09T02:00:00Z,30.6671,-87.9365,-3.709,8.05,11111222 
DISL,ioos:station:DISL:MHPA:1,2019-11-09T03:00:00Z,30.6671,-87.9365,-3.692,8.07,11111222 
DISL,ioos:station:DISL:MHPA:1,2019-11-09T04:00:00Z,30.6671,-87.9365,-3.705,8.22,11111222 
DISL,ioos:station:DISL:MHPA:1,2019-11-09T05:00:00Z,30.6671,-87.9365,-3.665,8.01,11111222 
DISL,ioos:station:DISL:MHPA:1,2019-11-09T06:00:00Z,30.6671,-87.9365,-3.696,7.93,11111222 
DISL,ioos:station:DISL:MHPA:1,2019-11-09T07:00:00Z,30.6671,-87.9365,-3.637,7.73,11111222 
DISL,ioos:station:DISL:MHPA:1,2019-11-09T08:00:00Z,30.6671,-87.9365,-3.634,7.73,11111222 
DISL,ioos:station:DISL:MHPA:1,2019-11-09T08:30:00Z,30.6671,-87.9365,-3.635,7.76,11111222 
DISL,ioos:station:DISL:MHPA:1,2019-11-09T10:00:00Z,30.6671,-87.9365,-3.673,8.04,11111222 
DISL,ioos:station:DISL:MHPA:1,2019-11-09T11:00:00Z,30.6671,-87.9365,-3.676,8.17,11111222 
DISL,ioos:station:DISL:MHPA:1,2019-11-09T12:00:00Z,30.6671,-87.9365,-3.663,8.1,11111222 
DISL,ioos:station:DISL:MHPA:1,2019-11-09T13:00:00Z,30.6671,-87.9365,-3.659,8.1,11111222 
DISL,ioos:station:DISL:MHPA:1,2019-11-09T14:00:00Z,30.6671,-87.9365,-3.134,8.13,11111222 
DISL,ioos:station:DISL:MHPA:1,2019-11-09T15:00:00Z,30.6671,-87.9365,-3.64,8.15,11111222 
DISL,ioos:station:DISL:MHPA:1,2019-11-09T16:00:00Z,30.6671,-87.9365,-3.632,8.07,11111222 
DISL,ioos:station:DISL:MHPA:1,2019-11-09T17:00:00Z,30.6671,-87.9365,-3.594,8.04,11111222 
DISL,ioos:station:DISL:MHPA:1,2019-11-09T18:00:00Z,30.6671,-87.9365,-3.536,7.8,11111222 
DISL,ioos:station:DISL:MHPA:1,2019-11-09T19:00:00Z,30.6671,-87.9365,-3.578,8.2,11111222 
DISL,ioos:station:DISL:MHPA:1,2019-11-09T20:00:00Z,30.6671,-87.9365,-2.62,8.15,11111222 
DISL,ioos:station:DISL:MHPA:1,2019-11-09T21:00:00Z,30.6671,-87.9365,-2.136,8.08,11111222 
DISL,ioos:station:DISL:MHPA:1,2019-11-09T22:00:00Z,30.6671,-87.9365,-1.582,8.04,11111222 
DISL,ioos:station:DISL:MHPA:1,2019-11-09T22:30:00Z,30.6671,-87.9365,-1.059,8.09,11111222 
DISL,ioos:station:DISL:MHPA:1,2019-11-10T00:00:00Z,30.6671,-87.9365,-0.07,8.16,11111222 
DISL,ioos:station:DISL:MHPA:1,2019-11-10T01:00:00Z,30.6671,-87.9365,0.678,8.35,11111222 
DISL,ioos:station:DISL:MHPA:1,2019-11-10T02:00:00Z,30.6671,-87.9365,1.502,8.36,11111222 
DISL,ioos:station:DISL:MHPA:1,2019-11-10T03:00:00Z,30.6671,-87.9365,2.337,8.01,11111222 
DISL,ioos:station:DISL:MHPA:1,2019-11-10T04:00:00Z,30.6671,-87.9365,2.777,8.13,11111222 
DISL,ioos:station:DISL:MHPA:1,2019-11-10T05:00:00Z,30.6671,-87.9365,3.101,8.14,11111222 
DISL,ioos:station:DISL:MHPA:1,2019-11-10T06:00:00Z,30.6671,-87.9365,3.55,8.15,11111222 
DISL,ioos:station:DISL:MHPA:1,2019-11-10T07:00:00Z,30.6671,-87.9365,3.696,8.0,11111222 
DISL,ioos:station:DISL:MHPA:1,2019-11-10T08:00:00Z,30.6671,-87.9365,3.604,8.02,11111222 
DISL,ioos:station:DISL:MHPA:1,2019-11-10T09:00:00Z,30.6671,-87.9365,3.749,7.78,11111222 
DISL,ioos:station:DISL:MHPA:1,2019-11-10T10:00:00Z,30.6671,-87.9365,3.568,7.17,11111222 
DISL,ioos:station:DISL:MHPA:1,2019-11-10T11:00:00Z,30.6671,-87.9365,3.966,7.09,11111222 
DISL,ioos:station:DISL:MHPA:1,2019-11-10T12:00:00Z,30.6671,-87.9365,3.742,7.05,11111222 
DISL,ioos:station:DISL:MHPA:1,2019-11-10T13:00:00Z,30.6671,-87.9365,3.906,7.29,11111222 
DISL,ioos:station:DISL:MHPA:1,2019-11-10T14:00:00Z,30.6671,-87.9365,3.889,7.15,11111222 
DISL,ioos:station:DISL:MHPA:1,2019-11-10T15:00:00Z,30.6671,-87.9365,3.871,7.29,11111222 
DISL,ioos:station:DISL:MHPA:1,2019-11-10T16:00:00Z,30.6671,-87.9365,3.877,7.11,11111222 
DISL,ioos:station:DISL:MHPA:1,2019-11-10T17:00:00Z,30.6671,-87.9365,4.198,7.36,11111222 
DISL,ioos:station:DISL:MHPA:1,2019-11-10T18:00:00Z,30.6671,-87.9365,4.094,7.48,11111222 
DISL,ioos:station:DISL:MHPA:1,2019-11-10T19:00:00Z,30.6671,-87.9365,4.274,7.92,11111222 
DISL,ioos:station:DISL:MHPA:1,2019-11-10T20:00:00Z,30.6671,-87.9365,4.304,7.86,11111222 
DISL,ioos:station:DISL:MHPA:1,2019-11-10T21:00:00Z,30.6671,-87.9365,4.295,7.97,11111222 
DISL,ioos:station:DISL:MHPA:1,2019-11-10T22:00:00Z,30.6671,-87.9365,4.564,8.53,11111222 
DISL,ioos:station:DISL:MHPA:1,2019-11-10T23:00:00Z,30.6671,-87.9365,4.507,8.27,11111222 
DISL,ioos:station:DISL:MHPA:1,2019-11-11T00:00:00Z,30.6671,-87.9365,4.552,8.3,11111222 
DISL,ioos:station:DISL:MHPA:1,2019-11-11T01:00:00Z,30.6671,-87.9365,4.818,7.71,11111222 
DISL,ioos:station:DISL:MHPA:1,2019-11-11T02:00:00Z,30.6671,-87.9365,4.96,8.41,11111222 
DISL,ioos:station:DISL:MHPA:1,2019-11-11T03:00:00Z,30.6671,-87.9365,4.85,8.36,11111222 
DISL,ioos:station:DISL:MHPA:1,2019-11-11T04:00:00Z,30.6671,-87.9365,4.729,8.43,11111222 
DISL,ioos:station:DISL:MHPA:1,2019-11-11T05:00:00Z,30.6671,-87.9365,4.802,8.79,11111222 
DISL,ioos:station:DISL:MHPA:1,2019-11-11T06:00:00Z,30.6671,-87.9365,4.772,8.38,11111222 
DISL,ioos:station:DISL:MHPA:1,2019-11-11T07:00:00Z,30.6671,-87.9365,4.613,8.43,11111222 
DISL,ioos:station:DISL:MHPA:1,2019-11-11T08:00:00Z,30.6671,-87.9365,4.743,8.27,11111222 
DISL,ioos:station:DISL:MHPA:1,2019-11-11T09:00:00Z,30.6671,-87.9365,4.799,8.19,11111222 
DISL,ioos:station:DISL:MHPA:1,2019-11-11T10:00:00Z,30.6671,-87.9365,4.634,7.84,11111222 
DISL,ioos:station:DISL:MHPA:1,2019-11-11T11:00:00Z,30.6671,-87.9365,4.639,7.38,11111222 
DISL,ioos:station:DISL:MHPA:1,2019-11-11T12:00:00Z,30.6671,-87.9365,4.495,7.6,11111222 
DISL,ioos:station:DISL:MHPA:1,2019-11-11T13:00:00Z,30.6671,-87.9365,4.607,7.14,11111222 
DISL,ioos:station:DISL:MHPA:1,2019-11-11T14:00:00Z,30.6671,-87.9365,4.717,7.14,11111222 
DISL,ioos:station:DISL:MHPA:1,2019-11-11T15:00:00Z,30.6671,-87.9365,4.546,6.88,11111222 
DISL,ioos:station:DISL:MHPA:1,2019-11-11T16:00:00Z,30.6671,-87.9365,4.429,7.41,11111222 
DISL,ioos:station:DISL:MHPA:1,2019-11-11T17:00:00Z,30.6671,-87.9365,4.466,7.83,11111222 
DISL,ioos:station:DISL:MHPA:1,2019-11-11T18:00:00Z,30.6671,-87.9365,4.304,7.99,11111222 
DISL,ioos:station:DISL:MHPA:1,2019-11-11T19:00:00Z,30.6671,-87.9365,4.341,7.3,11111222 
DISL,ioos:station:DISL:MHPA:1,2019-11-11T20:00:00Z,30.6671,-87.9365,4.383,7.02,11111222 
DISL,ioos:station:DISL:MHPA:1,2019-11-11T21:00:00Z,30.6671,-87.9365,4.561,7.12,11111222 
DISL,ioos:station:DISL:MHPA:1,2019-11-11T22:00:00Z,30.6671,-87.9365,4.465,7.42,11111222 
DISL,ioos:station:DISL:MHPA:1,2019-11-11T23:00:00Z,30.6671,-87.9365,4.499,8.32,11111222 
DISL,ioos:station:DISL:MHPA:1,2019-11-12T00:00:00Z,30.6671,-87.9365,4.545,7.39,11111222 
DISL,ioos:station:DISL:MHPA:1,2019-11-12T01:00:00Z,30.6671,-87.9365,4.617,7.72,11111222 
DISL,ioos:station:DISL:MHPA:1,2019-11-12T02:00:00Z,30.6671,-87.9365,4.483,8.6,11111222 
DISL,ioos:station:DISL:MHPA:1,2019-11-12T03:00:00Z,30.6671,-87.9365,4.579,8.86,11111222 
DISL,ioos:station:DISL:MHPA:1,2019-11-12T04:00:00Z,30.6671,-87.9365,4.578,8.8,11111222 
DISL,ioos:station:DISL:MHPA:1,2019-11-12T05:00:00Z,30.6671,-87.9365,4.513,8.31,11111222 
DISL,ioos:station:DISL:MHPA:1,2019-11-12T06:00:00Z,30.6671,-87.9365,4.527,7.49,11111222 
DISL,ioos:station:DISL:MHPA:1,2019-11-12T07:00:00Z,30.6671,-87.9365,4.476,8.73,11111222 
DISL,ioos:station:DISL:MHPA:1,2019-11-12T08:00:00Z,30.6671,-87.9365,4.535,8.65,11111222 
DISL,ioos:station:DISL:MHPA:1,2019-11-12T09:00:00Z,30.6671,-87.9365,4.394,7.32,11111222 
DISL,ioos:station:DISL:MHPA:1,2019-11-12T10:00:00Z,30.6671,-87.9365,4.259,8.43,11111222 
DISL,ioos:station:DISL:MHPA:1,2019-11-12T11:00:00Z,30.6671,-87.9365,4.183,7.9,11111222 